Location: Zilina
(0.0000°N, 18.7333°E)
Time: 14:02:56
(UTC+02:00)

USA 229 - Pass Details

Date: 19 February 2019
Orbit: 1003 x 1209 km, 63.5° (Epoch: 08 October)

Event Time Altitude Azimuth Distance (km) Brightness Sun altitude
Rises 19:08:26 0° 329° (NNW) 4,071 7.0 -17.0°
Reaches altitude 10° 19:11:11 10° 326° (NW) 3,124 6.4 -17.7°
Maximum altitude 19:18:36 60° 248° (WSW) 1,359 4.5 -19.5°
Drops below altitude 10° 19:26:03 10° 169° (SSE) 3,136 6.1 -21.4°
Sets 19:28:50 0° 165° (SSE) 4,088 6.7 -22.0°
